Flag for Czech Republic Weather past 2 weeks in Prague, Czech Republic

Now
64 °F

Scattered clouds.


Feels Like: 64 °F
Forecast: 51 / 57 °F
Wind: 10 mph from West

Location: Prague Ruzyne Airport

Current Time: Sep 21, 2014 at 5:14:51 PM

Latest Report: Sep 21, 2014 at 4:30 PM


Visibility: N/A

Pressure: 29.86 "Hg

Humidity: 78%

Dew point: 57 °F

Location of PragueLocation

Historic Weather in Prague — Graph

°F

Prague temperature yesterday

Maximum temperature yesterday: 72 °F (at 12:30 PM)
Minimum temperature yesterday: 55 °F (at 4:30 AM)
Average temperature yesterday: 62 °F

Past Weeks' High & Low Weather Summary

 TemperatureHumidityPressure
High79 °F (Sep 6, 4:30 PM)100% (Sep 8, 6:30 AM)30.12 "Hg (Sep 8, 6:30 AM)
Low48 °F (Sep 10, 5:30 AM)44% (Sep 7, 3:30 PM)29.83 "Hg (Sep 12, 5:30 AM)
Average61 °F83%30.01 "Hg
* Reported Sep 6 4:00 PM — Sep 21 4:00 PM, Prague, Weather by CustomWeather, © 2014

Note: Actual official high and low records may vary slightly from our data, if they occured in-between our weather recording intervals... More about our weather records

Advertising

Prague weather history for previous 24 hours

 ConditionsComfort  
Time TempWeatherWind HumidityBarometerVisibility
4:00 PM
Sep 21
64 °FPassing clouds.13 mph78%29.86 "HgN/A
3:30 PM64 °FScattered clouds.15 mph78%29.86 "HgN/A
3:00 PM64 °FScattered clouds.16 mph78%29.86 "HgN/A
2:30 PM66 °FScattered clouds.14 mph78%29.86 "HgN/A
2:00 PM64 °FPassing clouds.14 mph83%29.89 "HgN/A
1:30 PM64 °FScattered clouds.13 mph78%29.89 "HgN/A
1:00 PM66 °FScattered clouds.13 mph78%29.89 "HgN/A
12:30 PM66 °FScattered clouds.12 mph78%29.89 "HgN/A
12:00 PM64 °FScattered clouds.10 mph83%29.92 "HgN/A
11:30 AM63 °FPartly sunny.13 mph88%29.92 "HgN/A
11:00 AM64 °FScattered clouds.14 mph83%29.92 "HgN/A
10:30 AM63 °FPassing clouds.14 mph88%29.92 "HgN/A
10:00 AM61 °FPassing clouds.13 mph94%29.92 "HgN/A
9:30 AM61 °FPassing clouds.10 mph88%29.92 "HgN/A
9:00 AM59 °FSunny.7 mph94%29.92 "Hg10 mi
8:30 AM57 °FPassing clouds.9 mph94%29.92 "HgN/A
8:00 AM57 °FSunny.12 mph94%29.92 "Hg10 mi
7:30 AM57 °FClear.12 mph88%29.92 "Hg10 mi
7:00 AM57 °FClear.12 mph88%29.92 "Hg10 mi
6:30 AM55 °FClear.9 mph94%29.92 "Hg10 mi
6:00 AM55 °FClear.8 mph94%29.92 "Hg10 mi
5:30 AM57 °FClear.9 mph94%29.92 "Hg10 mi
5:00 AM57 °FClear.10 mph94%29.92 "Hg10 mi
4:30 AM55 °FClear.8 mph100%29.92 "Hg10 mi
4:00 AM57 °FClear.8 mph94%29.92 "Hg10 mi
3:30 AM59 °FClear.10 mph94%29.92 "Hg10 mi
3:00 AM59 °FClear.9 mph94%29.92 "Hg10 mi
2:30 AM59 °FClear.10 mph94%29.95 "Hg10 mi
2:01 AM59 °FClear.9 mph94%29.95 "Hg10 mi
1:30 AM59 °FClear.12 mph94%29.95 "Hg10 mi
1:00 AM59 °FClear.10 mph94%29.95 "Hg10 mi
12:30 AM59 °FClear.10 mph94%29.95 "Hg10 mi
12:00 AM59 °FClear.10 mph94%29.95 "Hg10 mi
11:30 PM
Sep 20
59 °FClear.8 mph94%29.95 "Hg10 mi
11:00 PM57 °FClear.7 mph94%29.95 "Hg10 mi
10:30 PM59 °FClear.9 mph100%29.95 "Hg10 mi
10:00 PM61 °FClear.8 mph94%29.95 "Hg10 mi
9:30 PM59 °FClear.8 mph94%29.95 "Hg10 mi
9:00 PM59 °FClear.7 mph100%29.95 "Hg10 mi
8:30 PM61 °FClear.5 mph94%29.95 "Hg10 mi
8:00 PM61 °FSunny.No wind94%29.95 "Hg10 mi
Weather by CustomWeather, © 2014

See weather overviewHow to use our weather pages